Regional Weather Roundup
Issued by NWS

Home | Current Version | Previous Version | Graphics & Text | Print | Product List | Glossary On
Versions: 1 2 3 4 5 6 7 8 9 10 11 12 13 14 15 16 17 18 19 20 21 22 23 24 25 26 27 28 29 30 31 32 33 34 35 36 37 38 39 40 41 42 43 44 45 46 47 48 49 50
000
ASUS45 KTFX 011610
RWRMT
MONTANA REGIONAL WEATHER ROUNDUP
NATIONAL WEATHER SERVICE GREAT FALLS MT
1000 AM MDT WED JUL 01 2015

NOTE: "FAIR" INDICATES FEW OR NO CLOUDS BELOW 12000 FEET WITH NO
SIGNIFICANT WEATHER AND/OR OBSTRUCTIONS TO VISIBILITY.

MTZ001>007-043-011700-
WEST OF THE DIVIDE

CITY           SKY/WX    TMP DP  RH WIND       PRES   REMARKS
KALISPELL      SUNNY     78  53  41 VRB5      30.04F
MISSOULA       SUNNY     74  49  41 CALM      30.08F
BUTTE          SUNNY     72  45  37 CALM      30.21S
MULLAN PASS    SUNNY     70  45  40 VRB3      30.23R
DEER LODGE       N/A     73  50  43 CALM      30.19S
EUREKA           N/A     70  55  60 NW6       30.08F
HAMILTON         N/A     75  50  41 N2        30.09F
RONAN            N/A     79  60  51 N5        30.09S
$$

MTZ008-052>055-011700-
SOUTHWEST MONTANA

CITY           SKY/WX    TMP DP  RH WIND       PRES   REMARKS
BOZEMAN        SUNNY     75  49  39 VRB3      30.13S
DILLON         SUNNY     74  49  41 CALM      30.16F
W YELLOWSTONE  SUNNY     68  50  52 CALM      30.26F
THREE FORKS      N/A     77  68  73 E1        30.10F
TWIN BRIDGES     N/A     73  49  42 S5        30.13S
$$

MTZ009-010-012-014-046-048-049-054-011700-
EAST SLOPES AND CENTRAL MONTANA

CITY           SKY/WX    TMP DP  RH WIND       PRES   REMARKS
CUT BANK       CLOUDY    71  54  54 NE9       30.08S HAZE
GREAT FALLS    SUNNY     77  53  43 CALM      30.05F
MALMSTROM AFB  SUNNY     74  55  50 W2        30.06F
HELENA         SUNNY     77  52  41 CALM      30.08F
$$

MTZ011-013-016-021-045-047-050-051-011700-
NORTH CENTRAL MONTANA

CITY           SKY/WX    TMP DP  RH WIND       PRES   REMARKS
HAVRE          LGT RAIN  63  60  90 NW5       30.05R FOG
LEWISTOWN      MOSUNNY   77  51  40 CALM      30.09S
CHINOOK          N/A     70  59  68 W9        30.04R
FORT BENTON      N/A     73  55  53 CALM      30.04F
$$

MTZ017>020-022>027-061-062-011700-
NORTHEAST MONTANA

CITY           SKY/WX    TMP DP  RH WIND       PRES   REMARKS
GLASGOW        CLOUDY    70  59  68 CALM      30.00F HAZE
JORDAN           N/A     73  60  63 NE7       30.01S
SIDNEY         PTSUNNY   68  61  77 N5        30.00S
WOLF POINT     CLOUDY    70  60  70 CALM      30.01R HAZE
MALTA            N/A     72  58  61 CALM      29.98S
PLENTYWOOD       N/A     66  63  88 NW6       30.00S
POPLAR           N/A     68  63  83 NE3       30.01R VSB 1
$$

MTZ028>42-056>058-011700-
SOUTHCENTRAL AND SOUTHEAST MONTANA

CITY           SKY/WX    TMP DP  RH WIND       PRES   REMARKS
BAKER          CLOUDY    66  61  84 N6        30.02R
BILLINGS       MOSUNNY   77  54  44 S6        30.06S
LIVINGSTON     SUNNY     78  52  40 CALM      30.11F
MILES CITY     SUNNY     75  61  61 N9        29.99F HAZE
FORSYTH          N/A     77  55  47 NW3       30.00S
LAUREL           N/A     78  52  40 CALM      30.04F
ROUNDUP          N/A     79  51  37 CALM      29.97R
$$

REGIONAL REPORTS...DAKOTAS

CITY           SKY/WX    TMP DP  RH WIND       PRES   REMARKS
WILLISTON      CLOUDY    67  58  72 CALM      29.99S
MINOT          CLOUDY    67  62  84 N5        29.95S HAZE
DICKINSON      CLOUDY    63  59  87 NE5       29.98R FOG
BEACH          LGT RAIN  64  64 100 N6        30.02R
CROSBY         CLOUDY    63  63 100 NW3       29.99F FOG
BISMARCK       CLOUDY    69  64  84 E5        29.95S
GRAND FORKS    SUNNY     74  58  57 W3        29.94S
FARGO          SUNNY     72  63  73 S8        29.96R
BUFFALO SD       N/A     70  62  76 NE12      29.94R
RAPID CITY     SUNNY     79  59  50 N24G32    29.98F
$$

REGIONAL REPORTS...WYOMING/IDAHO/WASHINGTON

CITY           SKY/WX    TMP DP  RH WIND       PRES   REMARKS
GILLETTE       SUNNY     79  53  40 NW6       30.09S
SHERIDAN       SUNNY     80  54  40 CALM      30.07F
BUFFALO WY     SUNNY     78  47  33 NE6       30.14F
CODY           SUNNY     75  48  38 CALM      30.13F
YELLOWSTONE LA   N/A     61  51  70 VRB5      30.36S
IDAHO FALLS    MOSUNNY   72  60  66 W8        30.14R
SALMON         SUNNY     73  52  46 NW3       30.09F
BOISE          SUNNY     81  53  37 NW5       30.03R
SPOKANE        MOSUNNY   78  49  35 VRB3      30.02R
$$

REGIONAL REPORTS...ALBERTA

CITY           SKY/WX    TMP DP  RH WIND       PRES   REMARKS
EDMONTON       CLOUDY    63  54  72 NW6       30.03R
CALGARY        PTSUNNY   61  54  77 N21G30    30.13S
LETHBRIDGE     PTSUNNY   66  55  68 NW12G17   30.10R
MEDICINE HAT   PTSUNNY   68  59  73 NW5       30.03S SMOKE
WATERTON GATE    N/A     61  57  88 N8          N/A
CARDSTON         N/A     61  59  94 N7          N/A
MILK RIVER       N/A     64  61  88 NE7         N/A
ONEFOUR          N/A     63  59  88 N2          N/A
$$

REGIONAL REPORTS...SASKATCHEWAN

CITY           SKY/WX    TMP DP  RH WIND       PRES   REMARKS
SWIFT CURRENT  MOSUNNY   70  55  60 W6        30.02S HAZE
REGINA         CLOUDY    63  57  82 W3        29.99F SMOKE
SASKATOON      PTSUNNY   64  61  88 W6        29.96F
CYPRESS HILLS    N/A     63  54  72 W6          N/A
VAL MARIE        N/A     70  57  64 NE5         N/A
$$


USA.gov is the U.S. government's official web portal to all federal, state and local government web resources and services.